Location: Newark
(13.6797°N, 8.5297°E)
Time: 05:30:28
(UTC+00:00)

S-56A Canister/Altair - Visible Passes

Search period start: 27 January 2020 00:00
Search period end: 06 February 2020 00:00
Orbit: 634 x 2498 km, 38.9° (Epoch: 26 January)

Date Brightness Start Highest point End Pass type
(mag) Time Alt. Az. Time Alt. Az. Time Alt. Az.
27 Jan 10.4 02:36:08 16° SE 02:36:08 16° SE 02:37:36 10° SE visible
27 Jan 10.1 04:33:35 11° SW 04:35:44 12° SSW 04:38:40 10° S visible
28 Jan 10.0 04:02:55 14° SSW 04:02:55 14° SSW 04:06:22 10° S visible
28 Jan 10.3 19:05:10 10° NW 19:07:43 12° NNW 19:10:00 10° N visible
29 Jan 10.2 03:32:14 13° S 03:32:14 13° S 03:33:54 10° S visible
29 Jan 10.2 18:29:58 10° WNW 18:34:43 15° NNW 18:38:39 10° N visible
30 Jan 10.2 17:55:10 10° WNW 18:01:43 20° NNW 18:06:49 10° NNE visible
03 Feb 10.5 17:52:05 10° NW 17:55:46 13° NNW 17:58:59 10° N visible
